089  
ASUS42 KCHS 190827  
RWRCHS  
 
REGIONAL WEATHER ROUNDUP  
NATIONAL WEATHER SERVICE CHARLESTON SC  
400 AM EDT THU SEP 19 2019  
 
NOTE: "FAIR" INDICATES FEW OR NO CLOUDS BELOW 12,000 FEET WITH NO  
SIGNIFICANT WEATHER AND/OR S TO VISIBILITY
.  
 
NOT ALL STATIONS ARE QUALITY CONTROLLED. USE DATA WITH CAUTION,  
ESPECIALLY DEWPOINT OBSERVATIONS.  
 
SCZ027-030-031-034>040-042>050-190900-   
..SOUTHEAST SOUTH CAROLINA
 
 
 
CITY SKY/WX TMP DP RH WIND PRES REMARKS
 
N CHARLESTON FAIR 65 56 72 NE10 30.13S  
WATERFRONT PRK N/A 71 62 73 NE15 29.97S  
MOUNT PLEASANT FAIR 64 59 82 VRB5 30.13S  
JOHNS ISLAND PTSUNNY 70 59 68 N9 30.13R  
PINOPOLIS N/A 68 61 77 E15 30.06S  
MONCKS CORNER FAIR 61 54 77 NE7 30.16R  
SUMMERVILLE PTSUNNY 63 57 82 NE5 30.14S  
BEAUFORT MCAS FAIR 69 60 73 NE8 30.11F  
BEAUFORT ARPT FAIR 70 61 73 NE13 30.11S  
HILTON HEAD IS FAIR 72 61 68 NE12G17 30.10S  
WALTERBORO FAIR 64 55 72 NE7 30.14S  
ALLENDALE FAIR 66 59 77 CALM 30.13S  
   
..SOUTHERN MIDLANDS AND PEE DEE
 
 
 
CITY SKY/WX TMP DP RH WIND PRES REMARKS
 
GEORGETOWN FAIR 61 54 77 N7 30.16R  
KINGSTREE FAIR 59 55 88 CALM 30.18R  
ORANGEBURG FAIR 66 52 60 NE6 30.16S  
BARNWELL PTSUNNY 66 57 72 NE5 30.15S  
AIKEN PTSUNNY 64 54 68 E6 30.20R  
MANNING FAIR 61 54 77 NE3 30.17S  
COLUMBIA FAIR 69 53 56 E7 30.18R  
SUMTER FAIR 62 53 73 NE8 30.18S  
FLORENCE FAIR 60 54 80 N7 30.19S  
MYRTLE BEACH FAIR 62 55 77 N8 30.17R  
N MYRTLE BEACH FAIR 61 55 81 N6 30.16S  
 

 
 
GAZ063-065-086>088-099>101-113>116-118-119-134>141-150-190900-   
..SOUTHEAST GEORGIA
 
 
 
CITY SKY/WX TMP DP RH WIND PRES REMARKS
 
SAVANNAH ARPT MOCLDY 70 64 81 N8 30.10S  
HUNTER AAF CLOUDY 74 63 69 E8 30.06F  
FORT STEWART CLOUDY 71 64 77 NE6 30.07S  
STATESBORO FAIR 68 57 68 NE5 30.13R  
SYLVANIA FAIR 67 59 73 NE3 30.14R  
CLAXTON PTSUNNY 71 64 80 CALM 30.10S  
MILLEN FAIR 69 57 65 NE7 30.13S  
   
..CSRA, CENTRAL AND FAR SOUTHEAST GEORGIA
 
 
 
CITY SKY/WX TMP DP RH WIND PRES REMARKS
 
THOMSON CLOUDY 70 58 63 S6 30.15S  
AUGUSTA-BUSH CLOUDY 68 59 73 CALM 30.14S  
AUGUSTA-DANIEL CLOUDY 71 56 58 E7 30.16R  
SWAINSBORO FAIR 70 61 73 E3 30.13S  
VIDALIA MOCLDY 70 63 78 NE5 30.10F  
EASTMAN PTSUNNY 69 64 82 E3 30.13S  
HAZLEHURST FAIR 71 64 76 CALM 30.08F  
ALMA FAIR 68 64 87 CALM 30.08F  
WAYCROSS MOCLDY 69 64 84 E5 30.07S  
JESUP FAIR 72 64 78 NE6 30.08F  
BAXLEY FAIR 68 68 100 E3 30.08F  
BRUNSWICK CLOUDY 76 63 62 E17 30.06F  
SAINT SIMONS CLOUDY 79 60 52 NE15 30.06F  
 

 
 
SCZ027-028-034-036>038-045-046-048>050-GAZ119-141-190900-   
..LAKE AND SUPPLEMENTAL COASTAL OBSERVATIONS
 
 
 
STATION/POSITION TIME TEMP WIND PRES WAVE SWELL
 
AIR SEA DIR/SP/G HT/PER HT/PER/DIR  
(UTC) (F) (DEG/KT/KT) (MB) (FT/S) (FT/S/D)  
WINYAH BAY 0745 66 360/ 6 1020.0S  
LAKE MURRAY 0750 70 70/ 5/ 13 1021.3R  
CHRLSTN HARBOR 0742 71 83 360/ 4/ 12 1020.2S  
ACE BASIN NERRS 0745 68 10/ 1 1020.0S  
FORT PULASKI 0742 77 81 70/ 19/ 24 1019.1F  
SAPELO ISLAND 0800 76 70/ 9 1018.0  
 

 
 
ANZ835-935-AMZ111-154-330-350-352-354-370-450-454-472-190900-   
..C-MAN AND BUOY OBSERVATIONS
 
 
 
STATION/POSITION TIME TEMP WIND PRES WAVE SWELL
 
AIR SEA DIR/SP/G HT/PER HT/PER/DIR  
(UTC) (F) (DEG/KT/KT) (MB) (FT/S) (FT/S/D)  
BUOY 41004 0810 81 40/ 17/ 21 1018.8  
BUOY 41008 0750 79 82 70/ 17/ 21 1017.6S 6/ 7 3/ 80/12  
FOLLY BEACH CMAN 0800 71 20/ 16/ 19 1020.3F  
CAPERS NEARSHORE 0808 74 81 60/ 19/ 25 1020.1R  
FRIPP NEARSHORE 0808 76 82 70/ 17/ 25 1018.5F  
 
 
STATION/POSITION TIME TEMP WIND PRES WAVE SWELL
 
AIR SEA DIR/SP/G HT/PER HT/PER/DIR  
(UTC) (F) (DEG/KT/KT) (MB) (FT/S) (FT/S/D)  
5E ST. MARYS GA 0800 83 N/A 6/12 3/100/12  
FRYING PAN BUOY 0810 74 81 30/ 21/ 27 1019.0  
BUOY 41025 0810 71 74 30/ 23/ 29 1019.5  
CAPE LOOKOUT NC 0800 67 20/ 21/ 25 1020.6R  
BUOY 41002 0810 77 30/ 19/ 25 1015.7  
BUOY 41010 0810 79 81 30/ 21/ 27 1015.1  
ST AUGUSTINE FL 0800 80 82 50/ 20/ 23 1016.5F  
 

 
 
 
CLICK HERE TO GO TO PREVIOUS BULLETINS.

The Nexlab SC Page
The Nexlab GA Page Main Text Page